This is the latest recevied weather packets stored in our database for station/object KE8CZD. If no packets are shown the sender has not sent any weather packets the latest 10 day(s).
| Time | Temp. | Humidity | Pressure | Rain* | Wind** | Luminosity | Snow |
|---|---|---|---|---|---|---|---|
| 1777996124 | 11.67° C | 65% | 1003.6 hPa | 0 mm | - | - | - |
| 1777995764 | 12.22° C | 62% | 1003.5 hPa | 0 mm | - | - | - |
| 1777995404 | 12.78° C | 61% | 1003.3 hPa | 0 mm | - | - | - |
| 1777995044 | 13.33° C | 60% | 1003.4 hPa | 0 mm | - | - | - |
| 1777994684 | 13.33° C | 59% | 1002.9 hPa | 0 mm | - | - | - |
| 1777993964 | 13.33° C | 58% | 1002.5 hPa | 0 mm | - | - | - |
| 1777993604 | 13.89° C | 57% | 1002.6 hPa | 0 mm | - | - | - |
| 1777993245 | 13.89° C | 55% | 1002.6 hPa | 0 mm | - | - | - |
| 1777992884 | 13.89° C | 56% | 1002.4 hPa | 0 mm | - | - | - |
| 1777992524 | 13.33° C | 57% | 1002.4 hPa | 0 mm | - | - | - |
| 1777992164 | 13.33° C | 57% | 1002.3 hPa | 0 mm | - | - | - |
| 1777991804 | 13.33° C | 56% | 1002.5 hPa | 0 mm | - | - | - |
| 1777991444 | 13.89° C | 57% | 1002.5 hPa | 0 mm | - | - | - |
| 1777991084 | 14.44° C | 55% | 1002.2 hPa | 0 mm | - | - | - |
| 1777990724 | 14.44° C | 52% | 1002.2 hPa | 0 mm | - | - | - |
| 1777990364 | 14.44° C | 51% | 1002 hPa | 0 mm | - | - | - |
| 1777990004 | 15° C | 54% | 1001.9 hPa | 0 mm | - | - | - |
| 1777989644 | 15° C | 55% | 1001.9 hPa | 0 mm | - | - | - |
| 1777989284 | 15° C | 52% | 1001.7 hPa | 0 mm | - | - | - |
| 1777988924 | 15° C | 51% | 1001.4 hPa | 0 mm | - | - | - |
| 1777988564 | 15° C | 51% | 1001.1 hPa | 0 mm | - | - | - |
| 1777988204 | 15° C | 51% | 1000.7 hPa | 0 mm | - | - | - |
| 1777987844 | 14.44° C | 52% | 1000.4 hPa | 0 mm | - | - | - |
| 1777987484 | 15° C | 51% | 1000.9 hPa | 0 mm | - | - | - |
| 1777987124 | 15° C | 51% | 1000.7 hPa | 0 mm | - | - | - |
* Rain latest hour (hover to see other rain measurements)
** Current wind speed in m/s (hover to see current wind gust speed)